Auburn, IN

10:52 PM EDT on September 30, 2016 (GMT -0400)
Auburn

Weather History for KGWB - June, 2013

Change the Weather History Date:

Thursday, June 27, 2013

  Actual Average (KFWA) Record (KFWA)
Temperature  
Mean Temperature 77 °F 73 °F  
Max Temperature 86 °F 84 °F 99 °F (1944)
Min Temperature 68 °F 62 °F 41 °F (1902)
Degree Days  
Heating Degree Days 0 0  
Month to date heating degree days 29  
Since 1 June heating degree days 29  
Since 1 July heating degree days 6101  
Cooling Degree Days 12 8  
Month to date cooling degree days 157  
Year to date cooling degree days 214  
Since 1 June cooling degree days 157  
Growing Degree Days 27 (Base 50)    
Moisture  
Dew Point 66 °F    
Average Humidity 77    
Maximum Humidity 94    
Minimum Humidity 51    
Precipitation  
Precipitation 0.00 in 0.13 in 2.25 in (1957)
Month to date precipitation 3.81  
Year to date precipitation 18.61  
Snow  
Snow 0.00 in 0.00 in 0.00 in (2002)
Month to date snowfall 0.0  
Since 1 June snowfall 0.0  
Since 1 July snowfall 33.5  
Snow Depth -    
Sea Level Pressure  
Sea Level Pressure 29.75 in    
Wind  
Wind Speed 3 mph (WNW)    
Max Wind Speed 14 mph    
Max Gust Speed 24 mph    
Visibility 7 miles    
Events Fog , Rain    
T = Trace of Precipitation, MM = Missing Value Source: NWS Daily Summary

Daily Weather History Graph

Daily Weather History Graph

Search for Another Location

Airport or City:

Trip Planner

Search our weather history database for the weather conditions in past years. The results will help you decide how hot, cold, wet, or windy it might be!

Date:

Astronomy

Jun. 27, 2013 Rise Set
Actual Time 6:09 AM EDT 9:17 PM EDT
Civil Twilight 5:35 AM EDT 9:51 PM EDT
Nautical Twilight 4:51 AM EDT 10:34 PM EDT
Astronomical Twilight 4:00 AM EDT 11:26 PM EDT
Moon No Moon Rise 11:12 AM EDT (6/27)
Length of Visible Light 16h 16m
Length of Day
15h 08m
Waning Gibbous, 76% of the Moon is Illuminated
Jun 27
Waning Gibbous
Jun 30
Last Quarter
Jul 8
New
Jul 15
First Quarter
Jul 22
Full

Hourly Weather History & Observations

Time (EDT) Temp. Heat Index Dew Point Humidity Pressure Visibility Wind Dir Wind Speed Gust Speed Precip Events Conditions
12:15 AM 69.8 °F - 68.0 °F 94% 29.80 in 5.0 mi Calm Calm - N/A   Mostly Cloudy
12:35 AM 69.8 °F - 68.0 °F 94% 29.79 in 5.0 mi Calm Calm - N/A   Overcast
12:55 AM 69.8 °F - 68.0 °F 94% 29.79 in 5.0 mi Calm Calm - N/A   Overcast
1:15 AM 69.8 °F - 68.0 °F 94% 29.78 in 5.0 mi Calm Calm - N/A   Overcast
1:35 AM 69.8 °F - 68.0 °F 94% 29.78 in 5.0 mi Calm Calm - N/A   Overcast
2:15 AM 69.8 °F - 68.0 °F 94% 29.77 in 5.0 mi Calm Calm - N/A   Overcast
2:35 AM 69.8 °F - 68.0 °F 94% 29.76 in 5.0 mi Calm Calm - N/A   Mostly Cloudy
2:55 AM 69.8 °F - 66.2 °F 88% 29.76 in 3.0 mi Calm Calm - N/A   Mostly Cloudy
3:15 AM 69.8 °F - 66.2 °F 88% 29.76 in 3.0 mi Calm Calm - N/A   Overcast
3:35 AM 69.8 °F - 66.2 °F 88% 29.76 in 3.0 mi Calm Calm - N/A   Overcast
3:55 AM 68.0 °F - 66.2 °F 94% 29.75 in 2.0 mi Calm Calm - N/A   Mostly Cloudy
4:15 AM 68.0 °F - 66.2 °F 94% 29.75 in 1.2 mi Calm Calm - N/A   Scattered Clouds
4:35 AM 68.0 °F - 66.2 °F 94% 29.75 in 3.0 mi Calm Calm - N/A   Overcast
4:55 AM 68.0 °F - 66.2 °F 94% 29.74 in 1.8 mi Calm Calm - N/A   Mostly Cloudy
5:15 AM 68.0 °F - 64.4 °F 88% 29.76 in 3.0 mi Calm Calm - N/A   Scattered Clouds
5:35 AM 68.0 °F - 66.2 °F 94% 29.76 in 1.8 mi West 3.5 mph - N/A   Overcast
5:55 AM 68.0 °F - 66.2 °F 94% 29.76 in 1.2 mi Calm Calm - N/A   Overcast
6:15 AM 68.0 °F - 64.4 °F 88% 29.76 in 0.8 mi Calm Calm - N/A   Overcast
6:35 AM 68.0 °F - 64.4 °F 88% 29.77 in 0.2 mi Calm Calm - N/A Fog Fog
6:55 AM 68.0 °F - 66.2 °F 94% 29.78 in 0.2 mi Calm Calm - N/A Fog Fog
7:15 AM 68.0 °F - 66.2 °F 94% 29.78 in 0.5 mi Calm Calm - N/A Fog Fog
7:35 AM 69.8 °F - 68.0 °F 94% 29.78 in 1.5 mi WNW 3.5 mph - N/A   Overcast
7:55 AM 69.8 °F - 68.0 °F 94% 29.78 in 2.5 mi WNW 3.5 mph - N/A   Mostly Cloudy
8:15 AM 69.8 °F - 68.0 °F 94% 29.78 in 3.0 mi WNW 4.6 mph - N/A   Clear
8:35 AM 71.6 °F - 68.0 °F 88% 29.77 in 5.0 mi WNW 5.8 mph - N/A   Mostly Cloudy
8:55 AM 71.6 °F - 68.0 °F 88% 29.77 in 7.0 mi WNW 6.9 mph - N/A   Overcast
9:15 AM 73.4 °F - 68.0 °F 83% 29.78 in 7.0 mi WNW 8.1 mph - N/A   Mostly Cloudy
9:35 AM 71.6 °F - 68.0 °F 88% 29.78 in 7.0 mi WNW 5.8 mph - N/A   Mostly Cloudy
9:55 AM 73.4 °F - 68.0 °F 83% 29.78 in 7.0 mi West 5.8 mph - N/A   Scattered Clouds
10:15 AM 73.4 °F - 68.0 °F 83% 29.77 in 7.0 mi West 5.8 mph - N/A   Scattered Clouds
10:35 AM 75.2 °F - 68.0 °F 78% 29.77 in 10.0 mi NW 5.8 mph - N/A   Scattered Clouds
10:55 AM 75.2 °F - 68.0 °F 78% 29.78 in 10.0 mi West 8.1 mph - N/A   Mostly Cloudy
11:15 AM 75.2 °F - 68.0 °F 78% 29.78 in 10.0 mi WNW 6.9 mph - N/A   Mostly Cloudy
11:35 AM 78.8 °F - 68.0 °F 69% 29.78 in 10.0 mi WNW 6.9 mph - N/A   Scattered Clouds
11:55 AM 77.0 °F - 68.0 °F 74% 29.78 in 10.0 mi NW 9.2 mph - N/A   Mostly Cloudy
12:15 PM 78.8 °F - 68.0 °F 69% 29.78 in 10.0 mi WNW 9.2 mph - N/A   Mostly Cloudy
12:35 PM 78.8 °F - 66.2 °F 65% 29.78 in 10.0 mi WNW 8.1 mph - N/A   Scattered Clouds
12:55 PM 78.8 °F - 68.0 °F 69% 29.78 in 10.0 mi NW 6.9 mph - N/A   Mostly Cloudy
1:15 PM 80.6 °F 83.2 °F 68.0 °F 65% 29.78 in 10.0 mi WNW 6.9 mph - N/A   Mostly Cloudy
1:35 PM 80.6 °F 83.2 °F 68.0 °F 65% 29.78 in 10.0 mi WNW 8.1 mph - N/A   Scattered Clouds
1:55 PM 80.6 °F 82.7 °F 66.2 °F 61% 29.78 in 10.0 mi NW 6.9 mph - N/A   Scattered Clouds
2:15 PM 82.4 °F 84.6 °F 66.2 °F 58% 29.77 in 10.0 mi NW 6.9 mph 16.1 mph N/A   Scattered Clouds
2:35 PM 82.4 °F 85.4 °F 68.0 °F 62% 29.77 in 10.0 mi West 9.2 mph - N/A   Mostly Cloudy
2:55 PM 82.4 °F 84.6 °F 66.2 °F 58% 29.77 in 10.0 mi WNW 11.5 mph - N/A   Scattered Clouds
3:15 PM 82.4 °F 83.9 °F 64.4 °F 54% 29.77 in 10.0 mi WNW 11.5 mph - N/A   Scattered Clouds
3:35 PM 84.2 °F 85.6 °F 64.4 °F 51% 29.76 in 10.0 mi WNW 9.2 mph - N/A   Scattered Clouds
3:55 PM 84.2 °F 85.6 °F 64.4 °F 51% 29.76 in 10.0 mi WNW 10.4 mph - N/A   Scattered Clouds
4:15 PM 86.0 °F 89.4 °F 68.0 °F 55% 29.75 in 10.0 mi West 9.2 mph - N/A   Scattered Clouds
4:35 PM 84.2 °F 86.6 °F 66.2 °F 55% 29.74 in 10.0 mi West 11.5 mph 16.1 mph N/A   Scattered Clouds
4:55 PM 84.2 °F 86.6 °F 66.2 °F 55% 29.73 in 10.0 mi West 13.8 mph 21.9 mph N/A   Scattered Clouds
5:15 PM 84.2 °F 85.6 °F 64.4 °F 51% 29.73 in 10.0 mi West 11.5 mph 17.3 mph N/A   Scattered Clouds
5:35 PM 84.2 °F 85.6 °F 64.4 °F 51% 29.72 in 10.0 mi West 9.2 mph 17.3 mph N/A   Scattered Clouds
5:55 PM 82.4 °F 84.6 °F 66.2 °F 58% 29.72 in 10.0 mi West 11.5 mph 18.4 mph N/A   Scattered Clouds
6:15 PM 82.4 °F 84.6 °F 66.2 °F 58% 29.73 in 10.0 mi West 9.2 mph - N/A   Scattered Clouds
6:35 PM 82.4 °F 83.9 °F 64.4 °F 54% 29.72 in 10.0 mi West 11.5 mph 16.1 mph N/A   Scattered Clouds
6:55 PM 80.6 °F 82.7 °F 66.2 °F 61% 29.73 in 10.0 mi West 9.2 mph 16.1 mph N/A   Scattered Clouds
7:15 PM 80.6 °F 82.3 °F 64.4 °F 58% 29.73 in 10.0 mi West 9.2 mph - N/A   Clear
7:35 PM 80.6 °F 82.3 °F 64.4 °F 58% 29.72 in 10.0 mi West 6.9 mph - N/A   Clear
7:55 PM 78.8 °F - 64.4 °F 61% 29.72 in 10.0 mi NW 4.6 mph - N/A   Scattered Clouds
8:15 PM 78.8 °F - 66.2 °F 65% 29.72 in 10.0 mi NNW 3.5 mph - N/A   Scattered Clouds
8:35 PM 78.8 °F - 66.2 °F 65% 29.71 in 10.0 mi Calm Calm - N/A Rain Light Rain
8:55 PM 77.0 °F - 68.0 °F 74% 29.72 in 10.0 mi Calm Calm - N/A Rain Light Rain
9:15 PM 73.4 °F - 69.8 °F 88% 29.70 in 10.0 mi Calm Calm - N/A   Mostly Cloudy
9:35 PM 71.6 °F - 64.4 °F 78% 29.73 in 10.0 mi SSW 8.1 mph 24.2 mph N/A Rain Light Rain
9:55 PM 69.8 °F - 64.4 °F 83% 29.72 in 10.0 mi SSW 4.6 mph - N/A   Mostly Cloudy
10:15 PM 69.8 °F - 64.4 °F 83% 29.72 in 10.0 mi Calm Calm - N/A   Mostly Cloudy
10:35 PM 69.8 °F - 64.4 °F 83% 29.71 in 10.0 mi Calm Calm - N/A   Scattered Clouds
10:55 PM 68.0 °F - 64.4 °F 88% 29.70 in 10.0 mi Calm Calm - N/A   Scattered Clouds
11:15 PM 68.0 °F - 64.4 °F 88% 29.70 in 10.0 mi Calm Calm - N/A   Scattered Clouds
11:35 PM 68.0 °F - 64.4 °F 88% 29.69 in 10.0 mi Calm Calm - N/A   Mostly Cloudy
11:55 PM 68.0 °F - 64.4 °F 88% 29.69 in 10.0 mi Calm Calm - N/A   Scattered Clouds